• In Hungary
  • List of Countries
  • For 7 days
  • Water Temperature
  • Satellite Maps
  • Weather Map
  • News
  • Weather Widgets
  • user-avatar
    Login

    Hourly Weather Bukovichi

    Today, 20 August, Monday

    Time Temperature Precipitation Wind Pressure Humidity
    00:00 +15°C° 0 mm 2 mps 741 mmHg 91%
    01:00 +15°C° 0 mm 2 mps 741 mmHg 93%
    02:00 +15°C° 0 mm 2 mps 741 mmHg 96%
    03:00 +15°C° 0 mm 2 mps 741 mmHg 96%
    04:00 +15°C° 0 mm 2 mps 741 mmHg 96%
    05:00 +15°C° 0 mm 2 mps 741 mmHg 97%
    06:00 +16°C° 0.1 mm 2 mps 741 mmHg 94%
    07:00 +17°C° 0.1 mm 2 mps 741 mmHg 92%
    08:00 +18°C° 0.1 mm 3 mps 741 mmHg 90%
    09:00 +19°C° 0.2 mm 3 mps 741 mmHg 87%
    10:00 +19°C° 0.2 mm 3 mps 741 mmHg 85%
    11:00 +20°C° 0.2 mm 3 mps 740 mmHg 82%
    12:00 +20°C° 0.5 mm 3 mps 740 mmHg 84%
    13:00 +20°C° 0.5 mm 3 mps 740 mmHg 85%
    14:00 +20°C° 0.5 mm 3 mps 740 mmHg 86%
    15:00 +20°C° 0.2 mm 3 mps 739 mmHg 86%
    16:00 +20°C° 0.2 mm 3 mps 739 mmHg 86%
    17:00 +20°C° 0.2 mm 2 mps 738 mmHg 86%
    18:00 +19°C° 0 mm 2 mps 738 mmHg 88%
    19:00 +19°C° 0 mm 2 mps 737 mmHg 89%
    20:00 +18°C° 0 mm 3 mps 737 mmHg 91%
    21:00 +18°C° 0.1 mm 3 mps 736 mmHg 91%
    22:00 +18°C° 0.1 mm 4 mps 736 mmHg 90%
    23:00 +18°C° 0.1 mm 4 mps 735 mmHg 90%

    Tomorrow, 21 August, Tuesday

    Time Temperature Precipitation Wind Pressure Humidity
    00:00 +18°C° 0.1 mm 4 mps 735 mmHg 90%
    01:00 +18°C° 0.1 mm 4 mps 734 mmHg 90%
    02:00 +17°C° 0.1 mm 5 mps 733 mmHg 90%
    03:00 +17°C° 0.6 mm 5 mps 733 mmHg 92%
    04:00 +17°C° 0.6 mm 5 mps 732 mmHg 93%
    05:00 +16°C° 0.6 mm 5 mps 732 mmHg 95%
    06:00 +16°C° 0.7 mm 5 mps 732 mmHg 94%
    07:00 +16°C° 0.7 mm 5 mps 732 mmHg 93%
    08:00 +15°C° 0.7 mm 5 mps 732 mmHg 93%
    09:00 +15°C° 0.1 mm 6 mps 732 mmHg 87%
    10:00 +15°C° 0.1 mm 6 mps 733 mmHg 81%
    11:00 +15°C° 0.1 mm 6 mps 733 mmHg 75%
    12:00 +15°C° 0.1 mm 6 mps 734 mmHg 73%
    13:00 +15°C° 0.1 mm 6 mps 735 mmHg 72%
    14:00 +15°C° 0.1 mm 6 mps 735 mmHg 70%
    15:00 +15°C° 0.2 mm 5 mps 735 mmHg 72%
    16:00 +15°C° 0.2 mm 5 mps 736 mmHg 73%
    17:00 +15°C° 0.2 mm 5 mps 736 mmHg 75%
    18:00 +13°C° 0 mm 4 mps 736 mmHg 78%
    19:00 +12°C° 0 mm 3 mps 737 mmHg 81%
    20:00 +11°C° 0 mm 3 mps 737 mmHg 84%
    21:00 +11°C° 0 mm 3 mps 737 mmHg 83%
    22:00 +11°C° 0 mm 3 mps 738 mmHg 83%
    23:00 +11°C° 0 mm 3 mps 738 mmHg 83%

    Day after tomorrow, 22 August, Wednesday

    Time Temperature Precipitation Wind Pressure Humidity
    00:00 +10°C° 0 mm 3 mps 738 mmHg 83%
    01:00 +10°C° 0 mm 3 mps 738 mmHg 84%
    02:00 +10°C° 0 mm 4 mps 739 mmHg 84%
    03:00 +8°C° 0 mm 4 mps 739 mmHg 85%
    04:00 +8°C° 0 mm 4 mps 740 mmHg 87%
    05:00 +8°C° 0 mm 4 mps 740 mmHg 88%
    06:00 +10°C° 0 mm 4 mps 741 mmHg 82%
    07:00 +11°C° 0 mm 4 mps 741 mmHg 76%
    08:00 +13°C° 0 mm 5 mps 742 mmHg 69%
    09:00 +14°C° 0 mm 5 mps 742 mmHg 63%
    10:00 +14°C° 0 mm 5 mps 742 mmHg 57%
    11:00 +15°C° 0 mm 5 mps 743 mmHg 51%
    12:00 +16°C° 0 mm 5 mps 743 mmHg 49%
    13:00 +16°C° 0 mm 5 mps 743 mmHg 48%
    14:00 +17°C° 0 mm 5 mps 743 mmHg 46%
    15:00 +17°C° 0 mm 4 mps 744 mmHg 48%
    16:00 +17°C° 0 mm 4 mps 744 mmHg 50%
    17:00 +17°C° 0 mm 3 mps 744 mmHg 51%
    18:00 +14°C° 0 mm 3 mps 744 mmHg 59%
    19:00 +13°C° 0 mm 2 mps 745 mmHg 68%
    20:00 +10°C° 0 mm 2 mps 745 mmHg 76%
    21:00 +10°C° 0 mm 1 mps 745 mmHg 78%
    22:00 +10°C° 0 mm 1 mps 746 mmHg 81%
    23:00 +9°C° 0 mm 1 mps 746 mmHg 84%

    23 August, Thursday

    Time Temperature Precipitation Wind Pressure Humidity
    00:00 +9°C° 0 mm 1 mps 746 mmHg 85%
    01:00 +8°C° 0 mm 1 mps 746 mmHg 86%
    02:00 +8°C° 0 mm 1 mps 746 mmHg 87%
    03:00 +8°C° 0 mm 1 mps 747 mmHg 87%
    04:00 +8°C° 0 mm 1 mps 747 mmHg 87%
    05:00 +8°C° 0 mm 1 mps 747 mmHg 87%
    06:00 +9°C° 0 mm 2 mps 747 mmHg 79%
    07:00 +12°C° 0 mm 2 mps 747 mmHg 71%
    08:00 +14°C° 0 mm 2 mps 747 mmHg 63%
    09:00 +16°C° 0 mm 2 mps 747 mmHg 57%
    10:00 +17°C° 0 mm 2 mps 746 mmHg 52%
    11:00 +19°C° 0 mm 3 mps 746 mmHg 47%
    12:00 +19°C° 0 mm 3 mps 746 mmHg 46%
    13:00 +20°C° 0 mm 3 mps 746 mmHg 45%
    14:00 +21°C° 0 mm 3 mps 745 mmHg 44%
    15:00 +20°C° 0 mm 3 mps 745 mmHg 48%
    16:00 +20°C° 0 mm 2 mps 745 mmHg 52%
    17:00 +20°C° 0 mm 2 mps 745 mmHg 56%
    18:00 +17°C° 0 mm 2 mps 745 mmHg 62%
    19:00 +15°C° 0 mm 2 mps 745 mmHg 69%
    20:00 +13°C° 0 mm 2 mps 745 mmHg 76%
    21:00 +12°C° 0 mm 2 mps 745 mmHg 78%
    22:00 +12°C° 0 mm 2 mps 745 mmHg 81%
    23:00 +10°C° 0 mm 2 mps 745 mmHg 83%

    24 August, Friday

    Time Temperature Precipitation Wind Pressure Humidity
    00:00 +10°C° 0 mm 2 mps 745 mmHg 86%
    01:00 +10°C° 0 mm 2 mps 745 mmHg 89%
    02:00 +9°C° 0 mm 2 mps 745 mmHg 91%
    03:00 +9°C° 0 mm 2 mps 744 mmHg 92%
    04:00 +9°C° 0 mm 2 mps 744 mmHg 93%
    05:00 +9°C° 0 mm 2 mps 744 mmHg 94%
    06:00 +12°C° 0 mm 2 mps 744 mmHg 86%
    07:00 +14°C° 0 mm 2 mps 744 mmHg 77%
    08:00 +16°C° 0 mm 2 mps 744 mmHg 69%
    09:00 +18°C° 0 mm 3 mps 744 mmHg 63%
    10:00 +19°C° 0 mm 3 mps 744 mmHg 56%
    11:00 +21°C° 0 mm 3 mps 744 mmHg 50%
    12:00 +22°C° 0 mm 3 mps 744 mmHg 48%
    13:00 +24°C° 0 mm 3 mps 743 mmHg 47%
    14:00 +24°C° 0 mm 3 mps 743 mmHg 46%
    15:00 +24°C° 0 mm 2 mps 743 mmHg 50%
    16:00 +23°C° 0 mm 2 mps 743 mmHg 55%
    17:00 +23°C° 0 mm 2 mps 742 mmHg 59%
    18:00 +20°C° 0 mm 2 mps 742 mmHg 66%
    19:00 +18°C° 0 mm 2 mps 742 mmHg 73%
    20:00 +15°C° 0 mm 2 mps 742 mmHg 80%
    21:00 +15°C° 0 mm 2 mps 742 mmHg 83%
    22:00 +14°C° 0 mm 2 mps 742 mmHg 85%
    23:00 +13°C° 0 mm 2 mps 742 mmHg 87%

    25 August, Saturday

    Time Temperature Precipitation Wind Pressure Humidity
    00:00 +13°C° 0 mm 2 mps 742 mmHg 88%
    01:00 +13°C° 0 mm 2 mps 742 mmHg 90%
    02:00 +12°C° 0 mm 2 mps 742 mmHg 91%
    03:00 +12°C° 0 mm 2 mps 742 mmHg 91%
    04:00 +12°C° 0 mm 2 mps 742 mmHg 90%
    05:00 +11°C° 0 mm 3 mps 742 mmHg 90%
    06:00 +13°C° 0 mm 3 mps 742 mmHg 82%
    07:00 +16°C° 0 mm 3 mps 742 mmHg 74%
    08:00 +18°C° 0 mm 3 mps 742 mmHg 65%
    09:00 +20°C° 0 mm 4 mps 742 mmHg 59%
    10:00 +22°C° 0 mm 4 mps 742 mmHg 53%
    11:00 +23°C° 0 mm 4 mps 742 mmHg 46%
    12:00 +25°C° 0 mm 4 mps 742 mmHg 45%
    13:00 +25°C° 0 mm 4 mps 742 mmHg 44%
    14:00 +26°C° 0 mm 4 mps 742 mmHg 42%
    15:00 +25°C° 0 mm 3 mps 742 mmHg 47%
    16:00 +25°C° 0 mm 3 mps 741 mmHg 52%
    17:00 +24°C° 0 mm 2 mps 741 mmHg 57%
    18:00 +21°C° 0 mm 2 mps 741 mmHg 64%
    19:00 +19°C° 0 mm 2 mps 741 mmHg 71%
    20:00 +17°C° 0 mm 2 mps 741 mmHg 78%
    21:00 +16°C° 0 mm 2 mps 741 mmHg 80%
    22:00 +15°C° 0 mm 2 mps 741 mmHg 82%
    23:00 +14°C° 0 mm 2 mps 741 mmHg 84%
    Show more